Time,TemperatureF,DewpointF,PressureIn,WindDirection,WindDirectionDegrees,WindSpeedMPH,WindSpeedGustMPH,Humidity,HourlyPrecipIn,Conditions,Clouds,dailyrainin,SoftwareType,DateUTC
2013-02-24 00:03:00,26.9,22.0,30.00,WNW,292,9.0,13.0,83,0.00,,,0.00,weatherlink.com 1.10,2013-02-24 05:03:00,
2013-02-24 00:16:00,26.7,22.0,30.00,West,277,3.0,13.0,83,0.00,,,0.00,weatherlink.com 1.10,2013-02-24 05:16:00,
2013-02-24 00:31:00,26.9,23.0,30.01,WNW,290,6.0,14.0,84,0.00,,,0.00,weatherlink.com 1.10,2013-02-24 05:31:00,
2013-02-24 00:47:00,26.8,22.0,30.01,WNW,287,7.0,13.0,83,0.00,,,0.00,weatherlink.com 1.10,2013-02-24 05:47:00,
2013-02-24 01:02:00,26.7,22.0,30.01,NW,312,5.0,15.0,82,0.00,,,0.00,weatherlink.com 1.10,2013-02-24 06:02:00,
2013-02-24 01:16:00,26.7,22.0,30.01,WNW,292,3.0,11.0,82,0.00,,,0.00,weatherlink.com 1.10,2013-02-24 06:16:00,
2013-02-24 01:32:00,26.9,22.0,30.02,WNW,292,5.0,11.0,82,0.00,,,0.00,weatherlink.com 1.10,2013-02-24 06:32:00,
2013-02-24 01:46:00,27.1,22.0,30.02,NW,317,6.0,12.0,80,0.00,,,0.00,weatherlink.com 1.10,2013-02-24 06:46:00,
2013-02-24 02:02:00,27.2,22.0,30.02,WSW,254,4.0,10.0,80,0.00,,,0.00,weatherlink.com 1.10,2013-02-24 07:02:00,
2013-02-24 02:17:00,27.2,22.0,30.02,NW,309,3.0,10.0,80,0.00,,,0.00,weatherlink.com 1.10,2013-02-24 07:17:00,
2013-02-24 02:31:00,27.3,22.0,30.03,WNW,292,4.0,10.0,79,0.00,,,0.00,weatherlink.com 1.10,2013-02-24 07:31:00,
2013-02-24 02:47:00,27.4,22.0,30.03,West,261,2.0,10.0,79,0.00,,,0.00,weatherlink.com 1.10,2013-02-24 07:47:00,
2013-02-24 03:02:00,27.4,22.0,30.02,WNW,287,2.0,9.0,79,0.00,,,0.00,weatherlink.com 1.10,2013-02-24 08:02:00,
2013-02-24 03:32:00,27.3,22.0,30.02,WNW,295,4.0,12.0,79,0.00,,,0.00,weatherlink.com 1.10,2013-02-24 08:32:00,
2013-02-24 03:49:00,27.3,22.0,30.02,WNW,284,4.0,12.0,79,0.00,,,0.00,weatherlink.com 1.10,2013-02-24 08:49:00,
2013-02-24 04:04:00,27.2,22.0,30.04,WNW,290,6.0,13.0,79,0.00,,,0.00,weatherlink.com 1.10,2013-02-24 09:04:00,
2013-02-24 04:19:00,27.2,22.0,30.04,WNW,298,4.0,10.0,80,0.00,,,0.00,weatherlink.com 1.10,2013-02-24 09:19:00,
2013-02-24 04:34:00,27.1,21.0,30.03,WNW,288,3.0,9.0,79,0.00,,,0.00,weatherlink.com 1.10,2013-02-24 09:34:00,
2013-02-24 04:50:00,27.1,22.0,30.04,WNW,296,3.0,9.0,80,0.00,,,0.00,weatherlink.com 1.10,2013-02-24 09:50:00,
2013-02-24 05:05:00,27.0,22.0,30.05,West,269,2.0,8.0,81,0.00,,,0.00,weatherlink.com 1.10,2013-02-24 10:05:00,
2013-02-24 05:18:00,27.0,22.0,30.05,NW,309,5.0,10.0,81,0.00,,,0.00,weatherlink.com 1.10,2013-02-24 10:18:00,
2013-02-24 05:36:00,27.0,22.0,30.05,West,281,3.0,7.0,82,0.00,,,0.00,weatherlink.com 1.10,2013-02-24 10:36:00,
2013-02-24 05:49:00,27.0,23.0,30.05,West,267,6.0,10.0,83,0.00,,,0.00,weatherlink.com 1.10,2013-02-24 10:49:00,
2013-02-24 06:06:00,26.5,22.0,30.06,West,264,2.0,10.0,84,0.00,,,0.00,weatherlink.com 1.10,2013-02-24 11:06:00,
2013-02-24 06:21:00,26.1,22.0,30.07,West,279,5.0,8.0,85,0.00,,,0.00,weatherlink.com 1.10,2013-02-24 11:21:00,
2013-02-24 06:35:00,25.7,22.0,30.07,WSW,257,3.0,8.0,85,0.00,,,0.00,weatherlink.com 1.10,2013-02-24 11:35:00,
2013-02-24 06:51:00,25.0,21.0,30.08,West,268,2.0,7.0,86,0.00,,,0.00,weatherlink.com 1.10,2013-02-24 11:51:00,
2013-02-24 07:06:00,24.4,21.0,30.09,WSW,253,5.0,7.0,87,0.00,,,0.00,weatherlink.com 1.10,2013-02-24 12:06:00,
2013-02-24 07:20:00,24.3,21.0,30.09,West,271,3.0,6.0,87,0.00,,,0.00,weatherlink.com 1.10,2013-02-24 12:20:00,
2013-02-24 07:36:00,24.2,21.0,30.10,West,264,3.0,7.0,87,0.00,,,0.00,weatherlink.com 1.10,2013-02-24 12:36:00,
2013-02-24 07:51:00,23.9,21.0,30.10,WNW,289,3.0,5.0,87,0.00,,,0.00,weatherlink.com 1.10,2013-02-24 12:51:00,
2013-02-24 08:06:00,23.9,21.0,30.11,WNW,284,2.0,5.0,88,0.00,,,0.00,weatherlink.com 1.10,2013-02-24 13:06:00,
2013-02-24 08:21:00,24.3,21.0,30.11,SW,233,5.0,7.0,88,0.00,,,0.00,weatherlink.com 1.10,2013-02-24 13:21:00,
2013-02-24 08:37:00,24.7,21.0,30.12,West,268,4.0,9.0,87,0.00,,,0.00,weatherlink.com 1.10,2013-02-24 13:37:00,
2013-02-24 08:52:00,25.3,22.0,30.12,WNW,290,7.0,8.0,87,0.00,,,0.00,weatherlink.com 1.10,2013-02-24 13:52:00,
2013-02-24 09:07:00,25.7,22.0,30.11,WNW,286,4.0,11.0,85,0.00,,,0.00,weatherlink.com 1.10,2013-02-24 14:07:00,
2013-02-24 09:22:00,26.4,22.0,30.11,WNW,285,3.0,7.0,84,0.00,,,0.00,weatherlink.com 1.10,2013-02-24 14:22:00,
2013-02-24 09:37:00,27.0,22.0,30.13,WNW,296,6.0,9.0,82,0.00,,,0.00,weatherlink.com 1.10,2013-02-24 14:37:00,
2013-02-24 09:52:00,27.7,23.0,30.13,West,271,7.0,11.0,81,0.00,,,0.00,weatherlink.com 1.10,2013-02-24 14:52:00,
2013-02-24 10:07:00,28.3,23.0,30.13,WSW,257,8.0,11.0,80,0.00,,,0.00,weatherlink.com 1.10,2013-02-24 15:07:00,
2013-02-24 10:22:00,29.2,23.0,30.14,WSW,257,8.0,12.0,79,0.00,,,0.00,weatherlink.com 1.10,2013-02-24 15:22:00,
2013-02-24 10:38:00,29.3,23.0,30.14,West,263,9.0,13.0,78,0.00,,,0.00,weatherlink.com 1.10,2013-02-24 15:38:00,
2013-02-24 10:54:00,30.0,24.0,30.14,West,264,6.0,11.0,77,0.00,,,0.00,weatherlink.com 1.10,2013-02-24 15:54:00,
2013-02-24 11:09:00,30.8,24.0,30.15,WNW,283,6.0,11.0,75,0.00,,,0.00,weatherlink.com 1.10,2013-02-24 16:09:00,
2013-02-24 11:25:00,31.4,24.0,30.15,WSW,251,4.0,10.0,74,0.00,,,0.00,weatherlink.com 1.10,2013-02-24 16:25:00,
2013-02-24 11:39:00,32.0,24.0,30.15,SW,229,6.0,10.0,73,0.00,,,0.00,weatherlink.com 1.10,2013-02-24 16:39:00,
2013-02-24 11:57:00,32.9,25.0,30.15,SSW,207,6.0,10.0,73,0.00,,,0.00,weatherlink.com 1.10,2013-02-24 16:57:00,
2013-02-24 12:09:00,33.2,25.0,30.15,West,277,3.0,11.0,72,0.00,,,0.00,weatherlink.com 1.10,2013-02-24 17:09:00,
2013-02-24 12:25:00,32.9,24.0,30.15,WNW,302,5.0,10.0,70,0.00,,,0.00,weatherlink.com 1.10,2013-02-24 17:25:00,
2013-02-24 12:39:00,33.4,25.0,30.15,WNW,284,5.0,9.0,70,0.00,,,0.00,weatherlink.com 1.10,2013-02-24 17:39:00,
2013-02-24 12:54:00,33.6,24.0,30.15,WNW,297,3.0,11.0,67,0.00,,,0.00,weatherlink.com 1.10,2013-02-24 17:54:00,
2013-02-24 13:11:00,34.0,24.0,30.15,West,265,6.0,12.0,68,0.00,,,0.00,weatherlink.com 1.10,2013-02-24 18:11:00,
2013-02-24 13:25:00,34.7,24.0,30.15,NW,313,5.0,11.0,66,0.00,,,0.00,weatherlink.com 1.10,2013-02-24 18:25:00,
2013-02-24 13:40:00,35.0,24.0,30.14,West,272,6.0,12.0,64,0.00,,,0.00,weatherlink.com 1.10,2013-02-24 18:40:00,
2013-02-24 13:56:00,35.9,26.0,30.14,West,269,3.0,8.0,68,0.00,,,0.00,weatherlink.com 1.10,2013-02-24 18:56:00,
2013-02-24 14:11:00,35.9,25.0,30.14,NW,315,4.0,12.0,64,0.00,,,0.00,weatherlink.com 1.10,2013-02-24 19:11:00,
2013-02-24 14:26:00,35.5,24.0,30.13,West,263,1.0,10.0,64,0.00,,,0.00,weatherlink.com 1.10,2013-02-24 19:26:00,
2013-02-24 14:41:00,35.8,24.0,30.13,North,355,3.0,8.0,63,0.00,,,0.00,weatherlink.com 1.10,2013-02-24 19:41:00,
2013-02-24 14:56:00,36.1,24.0,30.14,WNW,292,4.0,8.0,63,0.00,,,0.00,weatherlink.com 1.10,2013-02-24 19:56:00,
2013-02-24 15:12:00,36.3,25.0,30.13,NW,312,5.0,8.0,63,0.00,,,0.00,weatherlink.com 1.10,2013-02-24 20:12:00,
2013-02-24 15:27:00,36.6,25.0,30.14,West,271,4.0,12.0,62,0.00,,,0.00,weatherlink.com 1.10,2013-02-24 20:27:00,
2013-02-24 15:42:00,36.9,26.0,30.14,West,277,3.0,8.0,65,0.00,,,0.00,weatherlink.com 1.10,2013-02-24 20:42:00,
2013-02-24 15:57:00,37.1,25.0,30.14,West,269,6.0,7.0,63,0.00,,,0.00,weatherlink.com 1.10,2013-02-24 20:57:00,
2013-02-24 16:12:00,37.3,25.0,30.14,NW,312,5.0,7.0,62,0.00,,,0.00,weatherlink.com 1.10,2013-02-24 21:12:00,
2013-02-24 16:28:00,37.5,26.0,30.15,SW,236,4.0,6.0,63,0.00,,,0.00,weatherlink.com 1.10,2013-02-24 21:28:00,
2013-02-24 16:41:00,37.6,26.0,30.15,West,275,4.0,7.0,63,0.00,,,0.00,weatherlink.com 1.10,2013-02-24 21:41:00,
2013-02-24 16:57:00,37.6,26.0,30.15,WNW,291,3.0,5.0,64,0.00,,,0.00,weatherlink.com 1.10,2013-02-24 21:57:00,
2013-02-24 17:11:00,37.7,26.0,30.15,WSW,254,5.0,6.0,62,0.00,,,0.00,weatherlink.com 1.10,2013-02-24 22:11:00,
2013-02-24 17:26:00,37.7,26.0,30.15,WNW,286,3.0,4.0,62,0.00,,,0.00,weatherlink.com 1.10,2013-02-24 22:26:00,
2013-02-24 17:43:00,37.4,26.0,30.16,WNW,284,2.0,6.0,63,0.00,,,0.00,weatherlink.com 1.10,2013-02-24 22:43:00,
2013-02-24 17:57:00,36.7,25.0,30.16,WNW,284,1.0,3.0,64,0.00,,,0.00,weatherlink.com 1.10,2013-02-24 22:57:00,
2013-02-24 18:12:00,36.1,25.0,30.16,WNW,284,2.0,3.0,65,0.00,,,0.00,weatherlink.com 1.10,2013-02-24 23:12:00,
2013-02-24 18:27:00,35.0,26.0,30.16,WNW,284,0.0,1.0,69,0.00,,,0.00,weatherlink.com 1.10,2013-02-24 23:27:00,
2013-02-24 18:43:00,33.4,25.0,30.16,WNW,284,0.0,0.0,71,0.00,,,0.00,weatherlink.com 1.10,2013-02-24 23:43:00,
2013-02-24 18:57:00,32.2,25.0,30.16,WNW,284,0.0,0.0,74,0.00,,,0.00,weatherlink.com 1.10,2013-02-24 23:57:00,
2013-02-24 19:14:00,31.0,25.0,30.17,WNW,284,0.0,0.0,77,0.00,,,0.00,weatherlink.com 1.10,2013-02-25 00:14:00,
2013-02-24 19:29:00,30.4,25.0,30.18,WNW,284,0.0,0.0,79,0.00,,,0.00,weatherlink.com 1.10,2013-02-25 00:29:00,
2013-02-24 19:44:00,29.4,24.0,30.18,WNW,284,0.0,0.0,81,0.00,,,0.00,weatherlink.com 1.10,2013-02-25 00:44:00,
2013-02-24 19:59:00,28.9,24.0,30.18,WNW,284,0.0,0.0,82,0.00,,,0.00,weatherlink.com 1.10,2013-02-25 00:59:00,
2013-02-24 20:12:00,28.5,24.0,30.18,WNW,284,0.0,0.0,84,0.00,,,0.00,weatherlink.com 1.10,2013-02-25 01:12:00,
2013-02-24 20:29:00,27.8,24.0,30.18,WNW,284,0.0,0.0,84,0.00,,,0.00,weatherlink.com 1.10,2013-02-25 01:29:00,
2013-02-24 20:44:00,27.4,24.0,30.18,WNW,284,0.0,0.0,85,0.00,,,0.00,weatherlink.com 1.10,2013-02-25 01:44:00,
2013-02-24 20:58:00,27.3,23.0,30.19,WNW,284,0.0,0.0,85,0.00,,,0.00,weatherlink.com 1.10,2013-02-25 01:58:00,
2013-02-24 21:14:00,26.9,23.0,30.19,WNW,284,0.0,0.0,86,0.00,,,0.00,weatherlink.com 1.10,2013-02-25 02:14:00,
2013-02-24 21:28:00,26.4,23.0,30.18,WNW,284,0.0,0.0,86,0.00,,,0.00,weatherlink.com 1.10,2013-02-25 02:28:00,
2013-02-24 21:45:00,26.0,23.0,30.19,WNW,284,0.0,0.0,88,0.00,,,0.00,weatherlink.com 1.10,2013-02-25 02:45:00,
2013-02-24 21:59:00,25.7,23.0,30.19,WNW,284,0.0,0.0,88,0.00,,,0.00,weatherlink.com 1.10,2013-02-25 02:59:00,
2013-02-24 22:14:00,25.6,23.0,30.19,WNW,284,0.0,0.0,90,0.00,,,0.00,weatherlink.com 1.10,2013-02-25 03:14:00,
2013-02-24 22:30:00,25.6,23.0,30.19,WNW,284,0.0,0.0,90,0.00,,,0.00,weatherlink.com 1.10,2013-02-25 03:30:00,
2013-02-24 22:45:00,25.5,23.0,30.19,WNW,284,0.0,0.0,90,0.00,,,0.00,weatherlink.com 1.10,2013-02-25 03:45:00,
2013-02-24 22:59:00,25.2,23.0,30.19,WNW,284,0.0,0.0,90,0.00,,,0.00,weatherlink.com 1.10,2013-02-25 03:59:00,
2013-02-24 23:31:00,24.5,22.0,30.19,WNW,284,0.0,0.0,91,0.00,,,0.00,weatherlink.com 1.10,2013-02-25 04:31:00,
2013-02-24 23:47:00,24.5,22.0,30.19,WNW,284,0.0,0.0,91,0.00,,,0.00,weatherlink.com 1.10,2013-02-25 04:47:00,